Theta_e
304 311 310 313 313 313 312 313 313 313 313 315 316 317 317 317 317 318 313 312 311 312 312 312 312 313 323 335 338 339 336 336 339 339 339 337 335 333 332 333 333 333 330 328 327 325 326 328 327
304 311 312 312 310 310 310 312 312 313 313 314 316 316 316 315 316 316 315 311 311 311 311 311 310 312 318 336 339 339 339 339 340 340 339 338 336 334 333 333 333 334 331 329 328 326 326 329 328
303 311 312 310 309 310 310 311 311 312 312 311 315 315 315 315 314 312 309 309 309 309 310 310 309 309 313 327 338 339 340 340 340 340 340 339 337 335 334 333 333 334 333 330 331 326 326 330 329
308 310 309 309 310 310 310 310 311 311 312 311 311 311 314 312 313 310 308 307 307 307 306 308 309 309 308 311 331 337 340 341 343 342 341 340 339 337 335 334 333 334 334 332 331 327 326 330 330
307 310 310 309 308 309 310 310 311 310 310 311 311 310 312 311 309 307 306 306 306 305 304 304 305 307 307 308 308 314 337 339 339 343 342 341 341 339 337 335 333 334 334 333 334 329 327 329 331
307 309 308 309 309 310 311 311 311 310 311 311 309 309 310 310 309 308 305 303 304 303 302 303 303 303 305 306 307 307 308 335 338 339 342 342 341 340 339 337 334 334 334 333 332 331 329 329 332
306 307 309 309 309 309 310 310 309 308 307 308 307 308 309 309 308 306 305 303 301 302 302 302 302 302 303 305 306 306 307 308 330 337 339 340 341 340 339 338 335 335 333 333 332 332 330 331 332
304 305 306 306 306 307 307 308 307 306 306 306 306 307 308 308 306 303 299 299 301 300 300 300 301 302 302 303 305 305 306 307 309 327 336 340 340 340 339 338 337 336 334 334 334 332 331 334 333
299 304 304 305 305 305 307 305 304 303 303 303 302 303 302 301 301 300 298 298 298 299 299 299 299 300 300 300 302 304 305 306 307 311 329 336 339 339 339 337 337 336 336 335 335 332 332 335 335
300 302 304 304 304 304 302 302 300 299 299 299 299 299 299 299 298 298 297 297 297 297 297 297 298 298 299 298 298 299 302 304 305 308 319 334 335 337 338 338 337 336 336 336 336 334 333 335 336
301 301 302 302 302 301 298 297 298 297 297 297 298 298 297 297 297 297 296 296 297 297 297 297 297 297 297 297 297 297 299 301 303 305 309 331 337 337 338 337 337 336 336 336 336 335 333 334 336
299 299 299 299 298 297 297 297 296 296 296 296 296 296 297 297 296 296 296 296 296 296 296 296 297 297 297 296 296 297 297 299 301 302 304 312 334 337 338 337 336 336 336 336 336 335 334 334 334
297 297 297 297 297 297 296 296 296 296 296 296 296 296 296 296 296 296 296 296 296 296 296 296 296 297 297 297 297 297 296 297 298 300 301 305 322 335 337 337 336 337 336 335 336 336 335 334 335
296 296 296 296 296 296 296 296 296 296 296 296 296 296 296 296 297 296 296 296 296 296 296 296 296 297 297 297 297 296 297 296 296 298 299 300 305 326 335 336 336 336 336 335 335 336 336 335 335
296 295 296 296 296 296 296 295 296 296 296 296 296 296 296 296 296 296 296 296 296 296 296 296 297 297 297 297 297 297 297 297 297 297 298 299 302 307 326 333 336 335 336 336 335 335 335 335 335
295 295 295 296 296 297 297 295 296 296 296 296 296 296 296 296 296 296 296 296 296 296 297 297 297 297 297 297 297 297 297 296 297 296 297 300 306 303 311 329 330 331 334 335 335 335 335 335 335
295 295 296 297 298 297 296 294 295 296 296 295 295 295 296 296 296 296 296 296 296 296 296 295 295 296 296 297 297 297 297 297 296 296 296 297 303 305 306 318 327 327 330 335 334 334 335 335 336
297 296 295 294 295 295 295 295 295 296 296 295 295 295 296 296 296 296 296 295 294 294 293 293 293 294 295 295 296 297 297 297 296 296 296 297 297 305 306 308 318 328 331 334 334 334 336 335 333
296 296 295 295 295 295 294 295 295 295 295 295 295 295 295 296 296 295 294 294 293 293 292 292 292 292 293 293 294 295 297 298 297 297 296 296 296 296 301 305 308 319 329 327 333 335 335 333 333
295 295 295 295 296 295 294 293 294 294 294 295 295 295 295 295 294 294 293 293 293 292 292 291 291 291 291 291 292 294 296 296 297 298 299 300 298 299 301 300 307 315 329 329 327 331 333 333 333
296 295 294 295 294 294 293 293 293 294 294 295 295 294 294 294 293 293 292 292 291 291 290 290 289 289 290 290 290 291 293 295 296 296 296 296 297 297 300 310 306 307 318 329 327 328 330 330 329
295 294 294 293 293 294 293 292 292 293 293 294 294 294 294 293 292 292 291 290 290 289 289 288 288 288 288 289 289 290 291 293 295 296 296 296 296 296 296 301 312 310 311 327 327 326 328 330 325
293 292 292 292 292 292 292 292 292 293 295 295 294 294 293 292 291 290 290 289 288 288 287 287 287 287 287 288 289 289 290 291 294 295 295 297 298 297 297 298 305 317 309 323 328 326 325 325 323
293 292 292 292 292 292 292 294 293 292 294 294 292 292 292 290 290 290 289 287 287 286 286 286 286 286 286 287 287 288 290 291 293 294 296 297 297 298 297 299 316 315 314 311 325 327 328 324 324
289 288 291 286 289 291 293 291 291 292 293 293 291 291 290 290 289 288 287 286 285 285 284 285 285 285 285 285 286 286 288 289 291 293 295 296 298 297 298 297 310 317 317 313 323 327 328 328 327
293 290 291 291 290 290 290 286 292 294 292 292 292 291 290 289 288 286 285 284 283 283 283 282 283 283 283 283 283 284 286 287 289 291 293 295 297 298 297 295 307 316 317 317 322 324 327 327 328
290 287 291 292 287 287 290 292 293 293 292 290 290 290 289 287 286 284 283 282 281 281 281 281 280 280 281 281 282 283 284 286 287 289 291 294 296 298 298 295 307 313 318 314 320 325 324 326 325
291 292 289 291 289 286 288 290 291 291 289 289 289 288 287 286 284 283 281 281 280 280 280 280 280 280 280 280 281 281 283 285 287 289 291 293 296 297 298 297 305 313 318 313 318 323 324 324 324
290 289 292 292 287 291 290 287 286 287 285 285 286 288 285 284 283 282 280 280 279 280 280 279 279 278 279 280 280 280 281 283 286 288 290 294 297 297 296 294 301 313 316 318 319 323 324 323 322
287 287 291 288 285 286 287 289 284 282 284 286 287 286 285 284 282 281 279 279 279 280 279 278 278 277 278 278 279 281 282 283 285 288 290 295 298 297 297 294 304 313 316 316 317 322 323 323 322
Wind_Speed
6 8 2 4 4 5 17 16 13 16 18 31 14 5 6 20 6 3 12 7 5 2 3 6 8 9 6 8 10 15 19 21 22 25 25 24 24 26 26 26 25 24 23 22 20 20 18 17 15
4 2 3 7 5 9 19 12 20 18 15 18 8 7 10 13 14 10 8 2 1 5 7 4 7 8 7 5 10 14 18 21 23 26 27 26 27 27 27 28 27 26 24 23 21 21 19 18 17
4 3 5 4 9 19 18 4 13 19 10 21 10 15 16 13 3 12 3 2 3 6 10 12 6 8 7 5 11 13 17 21 25 26 28 29 29 29 30 30 29 28 26 24 22 21 20 19 18
2 6 8 8 23 27 22 17 15 15 17 9 13 9 13 3 8 10 2 3 3 5 10 15 12 9 9 7 9 14 15 19 23 27 29 31 32 32 32 32 31 30 28 26 24 22 22 20 19
4 7 9 13 26 28 19 28 31 24 23 13 7 7 17 7 12 6 1 4 8 9 13 15 20 16 12 14 12 12 17 19 23 27 30 33 34 35 35 35 33 32 31 29 25 24 23 22 21
6 7 9 16 25 21 22 31 29 21 26 28 15 14 21 9 6 7 12 12 11 14 15 18 19 21 22 19 17 19 16 21 24 27 30 33 37 37 37 37 36 34 33 32 28 26 25 24 23
9 9 17 21 23 24 22 28 22 12 13 14 13 6 12 3 3 14 21 20 17 18 18 21 24 24 25 27 23 22 24 20 25 29 31 33 37 39 39 39 39 37 36 34 31 30 27 27 25
11 9 21 20 21 32 23 25 19 9 8 15 6 4 3 11 22 27 28 29 25 22 22 22 27 28 30 31 30 25 26 26 24 28 33 33 36 40 40 42 41 39 38 36 35 32 30 29 27
12 6 13 22 22 25 26 9 18 14 14 14 13 20 23 28 30 35 30 27 29 31 30 30 33 35 36 36 35 33 30 28 26 23 29 36 37 39 41 42 42 41 40 39 37 35 32 31 29
8 9 15 19 19 16 20 14 16 20 21 26 27 27 27 26 24 26 32 30 31 31 35 30 31 33 35 36 35 35 35 31 29 28 23 25 35 39 40 42 43 43 43 42 40 38 35 33 32
8 19 20 26 30 28 19 20 24 17 19 25 27 30 29 28 30 30 34 32 31 30 30 31 29 31 32 33 32 31 34 35 31 30 23 24 25 33 39 41 44 45 45 44 42 40 38 37 36
19 24 28 25 28 24 19 26 21 24 28 33 33 33 31 28 28 33 30 32 29 28 29 28 30 30 29 31 32 31 31 34 34 32 30 23 22 22 37 42 44 48 48 47 46 45 43 41 39
19 21 28 30 31 26 28 22 24 29 34 36 34 32 33 34 35 32 28 27 28 28 29 31 29 29 30 30 32 33 32 33 35 34 33 30 27 23 26 41 44 48 47 50 50 48 46 44 41
18 27 27 27 29 33 24 24 29 35 32 27 34 35 36 35 24 24 27 29 30 30 31 28 27 27 27 31 33 34 33 33 35 35 35 33 30 31 22 30 43 47 47 49 52 51 49 47 45
23 21 18 18 28 28 33 24 25 27 31 25 30 30 29 26 27 27 31 33 31 31 28 27 26 28 31 32 32 31 32 30 31 34 33 33 32 30 36 26 29 43 47 50 52 52 51 49 48
21 20 18 19 22 22 20 17 15 22 26 25 29 32 33 34 32 33 29 28 26 23 21 20 21 22 23 27 32 35 37 36 35 34 32 29 26 32 33 34 44 42 44 49 52 55 54 55 55
13 20 25 24 18 22 18 23 19 24 24 22 28 29 31 32 33 31 28 19 16 16 19 23 25 29 30 27 26 30 33 37 38 37 35 32 30 31 28 37 43 47 46 49 54 55 54 54 55
23 24 21 23 22 22 23 25 25 28 24 27 30 29 30 32 32 30 12 11 14 17 20 21 23 23 23 25 29 32 32 35 37 36 37 35 33 28 32 36 35 36 46 39 55 58 57 47 42
21 24 25 24 22 23 21 23 25 20 21 20 30 33 33 24 16 5 5 9 15 19 23 24 26 28 29 29 29 30 31 29 33 34 37 38 38 34 36 34 40 41 39 54 42 55 60 53 56
19 23 25 22 18 19 22 24 20 22 21 20 19 13 13 12 13 12 11 15 19 23 26 30 31 31 31 29 29 28 31 33 33 32 27 26 30 28 27 38 34 39 32 48 62 39 51 54 58
20 22 20 21 21 17 18 22 17 21 21 30 5 7 9 7 10 14 19 22 24 26 28 30 33 33 35 35 32 34 34 35 38 38 38 40 35 35 30 24 31 38 36 37 38 37 53 53 52
20 17 20 19 15 10 8 17 23 19 19 9 11 2 4 10 14 20 24 25 25 27 29 31 33 32 32 31 31 32 34 34 33 32 36 39 38 38 36 35 28 37 39 37 43 48 43 46 50
13 12 18 20 18 15 21 6 6 13 7 6 4 6 10 14 21 25 26 27 27 28 29 30 31 33 32 32 32 33 35 39 34 35 40 33 34 35 35 31 33 37 38 38 42 43 49 61 49
13 8 16 16 12 6 16 8 3 7 7 5 7 11 16 22 25 26 26 28 30 29 29 30 32 34 33 35 35 34 36 39 35 37 34 36 37 35 37 33 30 42 41 41 45 41 50 53 54
3 4 7 4 3 6 13 11 6 14 5 6 4 12 21 25 26 27 29 30 31 31 32 31 31 34 34 33 36 38 42 40 43 36 38 38 36 38 38 33 32 40 43 42 44 43 46 49 50
11 3 3 7 4 10 16 5 4 10 10 8 8 17 23 25 27 28 30 31 32 32 33 35 38 42 41 41 42 42 42 47 45 43 39 39 37 40 39 35 35 42 44 42 42 41 51 49 50
3 3 4 7 8 3 4 7 9 11 6 7 12 19 21 28 29 32 34 39 37 37 36 35 37 40 40 40 40 40 41 43 47 44 46 40 45 37 38 36 37 43 47 44 44 42 46 44 43
5 7 5 2 4 6 7 11 5 7 6 11 14 10 22 28 32 37 38 37 36 35 36 36 36 38 40 41 40 42 41 42 45 44 44 43 42 46 42 37 35 44 49 46 45 44 45 46 43
7 4 3 4 1 3 9 8 4 3 3 6 6 15 22 27 31 34 36 36 38 37 36 36 36 35 36 37 39 41 42 43 46 45 45 41 41 43 47 44 39 47 46 47 46 47 48 44 40
2 3 2 1 6 3 5 15 1 5 5 2 7 18 22 25 32 35 37 38 41 41 40 39 36 34 31 33 36 39 41 41 40 43 45 41 43 42 44 42 41 49 48 51 48 48 50 45 43
Wind_Direction
301 356 328 242 251 233 254 237 247 252 254 266 247 289 269 302 237 166 156 127 69 3 329 22 7 1 343 225 215 232 230 241 240 232 229 222 214 209 205 204 201 201 195 193 189 187 182 177 176
288 65 282 262 236 241 251 236 246 252 279 300 194 280 285 276 282 144 140 91 35 313 319 358 5 3 351 262 231 224 230 233 235 236 232 226 219 214 210 207 204 203 202 198 195 191 187 182 178
300 298 259 208 233 237 256 275 284 295 337 335 191 213 239 248 127 135 99 98 59 336 305 306 331 348 354 306 253 242 231 228 234 238 233 229 223 218 214 211 207 206 205 203 201 197 191 187 182
228 233 256 251 246 248 249 261 264 277 275 287 321 286 246 197 154 153 158 14 1 341 327 311 304 308 319 329 297 250 256 236 232 240 235 231 227 222 218 216 210 208 208 207 205 204 197 193 190
244 253 238 246 251 258 263 276 283 285 287 240 213 257 272 108 122 121 345 310 321 314 319 318 314 300 299 299 302 306 252 251 236 231 239 233 231 226 221 219 215 211 209 208 207 206 202 197 196
259 227 241 242 251 261 258 260 265 265 258 269 220 250 250 197 175 280 310 325 302 312 311 311 312 309 300 289 295 294 297 253 244 237 232 237 233 229 224 222 219 214 211 211 209 207 206 202 199
244 267 253 260 269 278 275 294 299 314 317 334 345 267 260 220 280 306 306 312 312 301 302 301 298 302 300 302 291 288 288 284 260 235 235 235 235 232 227 223 222 217 213 212 211 209 207 206 203
259 266 265 263 271 270 286 284 292 340 316 313 336 280 265 287 300 317 318 305 297 306 300 296 292 295 302 298 296 291 282 281 278 263 233 237 235 233 229 227 223 221 215 213 212 211 207 206 205
263 256 253 257 259 276 287 343 325 336 294 294 286 287 297 305 306 302 307 312 307 296 298 297 292 290 293 297 294 291 284 281 280 279 258 233 238 230 230 227 226 222 220 215 214 212 209 207 207
207 236 251 263 281 301 330 329 328 322 306 292 288 288 293 299 295 303 303 309 304 301 295 294 293 290 287 289 294 290 285 281 280 274 278 251 239 234 229 227 228 225 223 218 215 213 211 209 208
234 247 272 285 297 306 310 305 296 284 281 277 285 297 298 297 294 293 290 290 290 289 289 290 290 288 288 286 291 293 285 282 277 277 275 250 234 237 228 228 228 227 225 220 218 215 212 210 210
266 263 274 284 284 301 290 293 285 286 274 282 287 288 287 282 276 275 272 278 277 282 289 294 292 289 289 288 287 287 287 280 276 273 274 269 238 232 232 230 227 228 224 218 218 216 214 211 214
274 273 280 280 281 277 278 273 274 271 272 276 275 272 272 269 265 264 269 271 276 278 279 283 284 287 286 285 284 284 283 281 278 272 269 269 256 222 237 237 232 230 225 220 218 218 213 211 214
286 292 289 287 287 279 278 276 272 270 276 285 285 280 271 269 274 284 285 281 273 272 276 277 277 277 277 278 278 281 282 280 280 274 269 267 264 250 229 242 236 235 227 224 219 218 215 211 213
277 289 286 276 277 276 271 268 258 268 280 289 301 298 295 293 291 285 280 275 272 271 274 276 278 276 275 275 278 278 278 278 277 275 271 264 262 257 249 236 241 239 235 228 221 219 216 212 211
288 278 277 271 256 258 261 271 265 266 277 279 284 284 283 284 283 280 278 275 272 270 263 261 260 262 268 272 271 270 271 271 266 268 269 265 267 259 254 247 233 242 240 230 225 220 217 215 209
253 272 278 291 302 308 305 298 309 299 285 290 289 285 287 285 282 279 277 265 259 272 276 277 277 271 265 265 272 276 276 274 269 267 265 260 253 257 253 252 232 234 241 235 225 221 216 209 200
300 302 306 303 313 310 304 293 290 290 290 280 279 278 274 274 276 281 242 266 289 291 291 287 285 285 280 278 272 266 269 270 272 267 265 265 259 249 246 244 254 242 237 235 224 220 215 207 202
300 301 294 287 289 291 282 283 283 285 289 285 279 275 268 272 292 67 358 319 307 300 292 287 285 280 279 278 273 271 264 273 275 271 266 264 264 261 250 247 245 239 231 237 234 216 207 203 204
298 293 298 298 302 304 297 288 292 281 274 282 302 324 38 11 357 359 332 313 301 292 288 285 281 279 278 276 273 269 271 268 260 262 263 270 267 264 266 246 242 242 245 219 220 208 184 196 203
296 302 310 304 304 294 295 292 299 294 298 282 53 29 47 22 355 335 320 306 299 295 291 287 282 278 273 271 271 264 260 261 260 257 262 258 255 259 248 248 250 245 243 229 218 205 200 206 194
307 313 303 301 308 292 319 290 290 290 282 255 122 67 15 354 337 327 316 308 304 298 294 288 287 285 283 281 277 274 268 265 261 262 266 265 265 261 258 243 244 245 240 235 222 221 215 207 190
299 315 310 297 285 290 283 258 267 265 31 42 81 44 1 338 332 322 313 309 305 301 298 293 289 286 283 279 276 273 268 260 264 262 255 255 260 260 261 243 237 237 235 231 222 221 218 226 229
311 310 297 280 266 251 262 298 266 328 27 38 48 9 348 335 321 316 312 311 306 302 297 292 290 286 282 275 270 266 267 261 263 258 253 256 248 250 252 236 235 234 234 228 227 222 221 218 219
52 322 308 314 332 269 321 327 267 288 79 81 32 359 334 323 322 319 318 315 309 304 301 296 292 287 283 277 271 264 258 262 257 257 256 244 252 246 244 240 238 230 228 227 225 221 228 215 214
301 277 288 295 291 303 308 263 274 56 82 90 4 331 321 325 321 320 315 312 310 307 301 297 290 284 282 277 272 264 261 257 255 252 252 250 241 243 247 244 234 229 225 225 225 218 229 221 221
293 234 288 292 252 267 241 277 319 72 59 17 330 338 333 325 326 321 320 319 317 314 309 304 299 294 288 282 277 269 262 256 253 253 248 248 234 241 248 241 230 226 224 224 223 213 227 221 219
221 319 323 278 298 305 291 300 304 354 346 343 341 332 330 324 324 325 326 326 324 321 319 316 309 300 292 284 274 269 263 254 250 251 251 240 241 233 232 236 236 222 216 221 222 228 218 218 217
283 268 255 269 258 300 324 298 232 239 244 305 328 328 324 322 322 322 323 329 331 330 328 323 317 307 294 283 275 270 263 257 247 244 247 235 234 237 235 235 238 222 214 217 220 220 218 211 214
255 276 273 261 311 285 266 294 245 184 245 355 332 318 317 318 317 320 330 334 338 337 336 331 324 313 303 290 279 270 263 255 247 239 238 226 233 227 234 234 234 220 216 219 218 211 213 209 210